CAPE
0 1 4 9 2 0 0 0 0 0 0 0 4 0 29 42 39 16 0 0 0 0 0 0 0 0 0 23 21 16 0 0 0 0 0 0 0 0 0 0 0 0 0 0 0
0 2 2 4 4 2 0 0 0 2 0 0 1 1 6 3 3 27 0 13 19 3 0 0 0 0 0 45 20 6 0 0 0 0 0 2 0 0 0 0 0 0 0 0 0
1 3 1 3 2 4 1 2 0 1 1 0 0 0 6 6 14 0 11 3 39 27 5 0 0 0 11 6 30 8 0 0 0 0 0 0 0 0 0 0 0 0 0 0 0
1 2 3 1 1 3 0 0 1 0 3 15 0 0 16 1 6 28 14 0 6 44 27 1 0 0 18 3 16 24 13 0 0 0 10 0 0 0 0 0 0 0 0 0 0
1 2 4 3 1 5 0 0 0 1 4 24 32 21 1 7 1 8 0 0 0 0 16 6 15 0 2 10 38 23 24 14 1 0 1 2 0 0 0 0 0 0 0 0 0
12 2 5 5 4 8 0 0 1 7 18 22 53 45 8 4 0 0 14 5 0 2 18 31 37 11 0 4 13 45 50 26 18 3 1 1 0 0 0 0 0 0 0 0 0
29 18 21 14 0 6 7 1 0 22 38 47 48 45 19 0 0 0 21 10 0 0 0 36 27 53 21 5 20 18 8 60 16 8 8 8 0 0 0 0 0 0 0 0 0
26 42 32 42 18 19 19 0 0 17 52 55 37 46 17 0 0 0 0 0 0 0 0 0 16 45 42 12 36 62 30 0 0 9 6 5 0 0 0 0 0 0 0 0 0
34 45 33 54 60 62 48 3 2 5 60 42 24 51 6 0 0 0 0 0 0 0 0 0 1 27 43 30 45 24 0 0 0 14 7 7 0 0 0 0 0 0 0 0 0
64 55 47 54 72 67 64 2 0 0 31 32 9 13 0 0 0 0 0 1 2 2 1 8 20 28 39 38 6 6 23 0 0 0 16 3 0 0 0 0 0 0 0 0 0
57 53 43 70 66 67 29 4 1 6 22 0 0 0 0 0 0 0 0 2 4 14 13 19 31 12 0 0 0 0 20 79 0 64 14 4 0 0 0 0 0 0 0 0 0
60 38 39 60 71 60 47 4 0 0 7 2 0 0 0 2 0 0 0 9 16 21 14 39 17 0 0 4 8 1 16 15 41 87 29 9 1 1 0 0 0 0 0 0 0
56 34 40 41 50 49 10 2 0 0 20 17 0 0 1 1 5 9 0 0 3 11 16 18 0 0 4 16 37 8 9 1 48 116 17 16 1 0 0 0 0 0 0 0 0
51 40 27 35 12 5 30 13 11 1 3 2 9 8 0 0 2 2 8 12 13 6 17 46 3 5 22 10 16 15 0 6 74 80 30 0 0 0 0 0 0 0 0 0 0
55 47 24 1 42 21 1 0 0 0 0 0 14 1 4 1 0 1 0 30 29 8 36 0 1 4 35 15 14 2 39 0 99 107 32 5 0 0 0 0 0 0 0 0 0
48 26 37 28 11 9 4 0 0 2 0 2 7 23 27 8 11 7 2 34 20 36 33 1 17 43 14 35 57 11 2 4 72 51 77 12 2 0 0 0 0 0 0 0 0
60 20 23 16 7 1 0 0 2 10 0 13 16 14 11 25 27 9 17 26 20 23 16 29 1 0 1 211 35 116 110 178 40 68 15 0 32 4 0 0 0 0 0 0 0
60 36 11 4 0 0 3 3 8 3 0 6 11 13 37 31 44 14 9 19 36 26 6 7 4 2 0 13 14 54 34 3 38 18 1 0 0 0 0 0 0 0 0 0 0
46 19 4 8 0 0 8 2 11 13 11 11 15 24 16 42 62 23 22 21 1 9 27 79 6 0 3 0 55 9 0 4 1 0 0 0 0 0 0 0 0 0 0 0 0
0 2 4 5 3 8 20 13 13 19 5 12 30 5 3 11 8 9 14 4 7 20 0 2 14 11 15 16 66 9 23 9 0 0 10 0 0 0 0 0 0 0 0 0 0
0 2 0 4 4 17 4 3 3 10 7 11 5 4 6 0 0 2 0 0 2 4 0 4 10 2 0 71 26 31 40 0 0 0 12 0 0 0 0 0 0 0 0 0 0
1 2 4 8 10 11 8 4 9 19 12 16 11 3 1 0 0 0 0 0 0 0 9 4 24 4 2 0 1 30 0 0 21 0 0 0 0 0 0 0 0 0 0 0 0
1 9 11 0 6 8 3 12 6 5 22 14 4 0 0 0 0 0 10 14 0 0 0 11 13 3 0 6 5 13 4 0 0 0 0 0 0 0 0 0 0 0 0 0 0
0 19 31 19 4 7 4 17 12 10 6 20 3 0 0 0 0 0 0 28 0 0 8 38 19 3 2 0 0 3 0 0 0 0 0 0 0 0 0 0 0 0 0 0 0
0 10 2 7 5 5 6 6 11 9 6 0 0 0 0 3 0 0 0 2 6 0 7 9 16 11 0 0 0 0 0 0 0 0 0 0 0 0 0 0 0 0 0 0 0
0 0 1 15 0 3 5 8 12 6 16 4 0 6 0 0 0 0 0 1 0 4 0 0 2 0 0 0 0 0 0 0 0 0 0 0 0 0 0 0 0 0 0 0 0
0 0 0 16 25 5 6 1 2 13 14 1 0 0 8 0 0 0 0 0 3 0 0 3 2 4 0 0 0 0 0 0 0 0 0 0 0 0 0 0 0 0 0 0 0
CIN
-0 -0 -0 -0 -0 -0 -0 -0 -0 -0 -0 -1 -32 -2 -4 -2 -3 -1 -0 -0 -0 -0 -0 -0 -0 -0 -0 -28 -18 -3 -0 -0 -0 -0 -0 -0 -0 -0 -0 -0 -0 -0 -0 -0 -0
-0 -0 -0 -0 -0 -0 -0 -0 -0 -0 -0 -0 -19 -14 -4 -1 -0 -0 -0 -24 -22 -23 -0 -0 -0 -0 -0 -36 -26 -2 -0 -0 -0 -0 -0 -5 -1 -0 -0 -0 -0 -0 -0 -0 -0
-0 -0 -0 -0 -0 -0 -0 -0 -0 -0 -0 -0 -0 -0 -2 -24 -0 -0 -24 -9 -11 -12 -23 -0 -0 -0 -5 -9 -67 -7 -0 -0 -0 -0 -0 -4 -0 -0 -0 -0 -0 -0 -0 -0 -0
-0 -0 -0 -0 -0 -0 -0 -0 -0 -0 -0 -0 -0 -0 -2 -1 -0 -16 -52 -0 -1 -0 -0 -0 -0 -0 -0 -2 -1 -5 -1 -0 -0 -0 -10 -0 -0 -0 -0 -0 -0 -0 -0 -0 -0
-0 -0 -0 -0 -0 -0 -0 -0 -0 -0 -0 -0 -0 -1 -0 -0 -0 -28 -0 -0 -0 -0 -1 -0 -0 -0 -0 -1 -1 -4 -1 -1 -0 -0 -4 -7 -0 -0 -0 -0 -0 -0 -0 -0 -0
-0 -0 -0 -0 -0 -0 -0 -0 -0 -0 -0 -0 -0 -1 -0 -0 -0 -0 -19 -16 -0 -2 -3 -2 -1 -1 -0 -4 -21 -1 -8 -14 -80 -3 -2 -4 -0 -0 -0 -0 -0 -0 -0 -0 -0
-0 -0 -0 -0 -0 -0 -0 -0 -0 -0 -0 -0 -0 -0 -0 -0 -0 -0 -1 -13 -0 -0 -0 -9 -22 -8 -5 -3 -7 -11 -29 -4 -15 -2 -4 -4 -0 -0 -0 -0 -0 -0 -0 -0 -0
-0 -0 -0 -0 -0 -0 -0 -0 -0 -1 -1 -0 -1 -0 -0 -0 -0 -0 -0 -0 -0 -0 -0 -0 -12 -13 -19 -9 -23 -14 -15 -4 -0 -10 -7 -6 -0 -0 -0 -0 -0 -0 -0 -0 -0
-0 -0 -0 -0 -0 -0 -1 -1 -0 -0 -0 -2 -0 -0 -0 -0 -0 -0 -0 -0 -0 -0 -0 -0 -8 -5 -3 -0 -1 -14 -1 -0 -0 -13 -3 -3 -0 -0 -0 -0 -0 -0 -0 -0 -0
-0 -0 -0 -0 -0 -1 -2 -0 -0 -0 -6 -0 -0 -1 -0 -0 -0 -0 -0 -0 -0 -1 -1 -0 -2 -2 -2 -0 -0 -0 -0 -0 -0 -0 -7 -5 -0 -0 -0 -0 -0 -0 -0 -0 -0
-0 -1 -2 -0 -0 -3 -1 -2 -0 -0 -0 -0 -0 -0 -0 -0 -0 -0 -0 -0 -1 -0 -0 -1 -0 -0 -0 -0 -0 -2 -1 -11 -0 -42 -8 -5 -0 -0 -0 -0 -0 -0 -0 -0 -0
-1 -1 -1 -0 -0 -3 -1 -1 -0 -1 -0 -0 -0 -1 -0 -1 -0 -0 -0 -0 -0 -0 -1 -0 -0 -0 -0 -0 -0 -0 -9 -35 -25 -17 -13 -19 -21 -2 -0 -0 -0 -0 -0 -0 -0
-1 -1 -1 -1 -2 -1 -0 -0 -0 -0 -0 -0 -0 -0 -0 -1 -0 -1 -0 -0 -0 -0 -0 -0 -0 -0 -0 -0 -0 -1 -3 -1 -4 -13 -10 -15 -1 -0 -0 -0 -0 -0 -0 -0 -0
-1 -0 -0 -2 -3 -0 -0 -4 -18 -11 -0 -0 -0 -0 -0 -2 -0 -1 -0 -0 -0 -0 -1 -0 -1 -1 -0 -0 -2 -0 -0 -27 -42 -5 -1 -2 -0 -0 -0 -0 -0 -0 -0 -0 -0
-2 -0 -1 -0 -3 -0 -1 -0 -0 -2 -0 -0 -0 -2 -1 -0 -1 -1 -1 -1 -0 -0 -1 -0 -5 -1 -0 -1 -12 -1 -18 -0 -17 -1 -20 -47 -0 -0 -0 -0 -0 -0 -0 -0 -0
-4 -0 -9 -2 -6 -7 -0 -1 -0 -0 -0 -0 -0 -0 -0 -0 -0 -0 -1 -0 -0 -0 -1 -4 -13 -8 -4 -54 -58 -82 -2 -5 -2 -4 -2 -1 -1 -0 -0 -0 -0 -0 -0 -0 -0
-3 -5 -4 -0 -0 -1 -0 -1 -0 -4 -0 -0 -0 -0 -0 -0 -0 -0 -0 -0 -0 -1 -0 -0 -8 -27 -0 -0 -24 -0 -3 -0 -22 -7 -20 -7 -38 -27 -0 -0 -0 -0 -0 -0 -0
-5 -0 -0 -5 -2 -0 -2 -0 -4 -1 -0 -0 -0 -0 -0 -0 -0 -0 -0 -0 -1 -5 -0 -1 -13 -16 -0 -4 -1 -0 -0 -9 -5 -16 -0 -0 -0 -6 -0 -0 -0 -0 -0 -0 -0
-5 -10 -0 -0 -0 -2 -1 -0 -1 -0 -0 -0 -0 -0 -0 -0 -0 -0 -0 -0 -0 -0 -0 -0 -0 -1 -10 -0 -3 -2 -0 -0 -15 -0 -0 -0 -0 -0 -0 -0 -0 -0 -0 -0 -0
-0 -28 -0 -0 -0 -3 -0 -0 -0 -1 -0 -0 -0 -0 -0 -0 -0 -0 -0 -10 -5 -2 -0 -0 -0 -1 -0 -5 -3 -5 -1 -1 -0 -1 -0 -0 -0 -0 -0 -0 -0 -0 -0 -0 -0
-0 -0 -0 -0 -1 -0 -0 -0 -1 -1 -0 -0 -0 -10 -7 -8 -0 -1 -0 -9 -19 -8 -0 -0 -0 -0 -0 -0 -0 -0 -0 -3 -0 -0 -16 -0 -0 -0 -0 -0 -0 -0 -0 -0 -0
-0 -0 -0 -0 -0 -0 -0 -0 -0 -0 -0 -0 -0 -0 -1 -1 -0 -0 -0 -35 -2 -0 -0 -0 -0 -0 -0 -0 -2 -1 -0 -0 -30 -0 -0 -0 -0 -0 -0 -0 -0 -0 -0 -0 -0
-0 -3 -0 -2 -0 -0 -0 -0 -0 -0 -0 -0 -0 -0 -0 -14 -0 -0 -13 -6 -0 -0 -0 -0 -0 -0 -0 -0 -3 -0 -4 -0 -0 -0 -0 -0 -0 -0 -0 -0 -0 -0 -0 -0 -0
-0 -17 -0 -0 -2 -0 -0 -0 -0 -0 -0 -0 -2 -0 -1 -0 -0 -6 -0 -0 -0 -0 -27 -4 -0 -0 -0 -0 -0 -0 -0 -0 -0 -0 -0 -0 -0 -0 -0 -0 -0 -0 -0 -0 -0
-0 -1 -0 -0 -0 -0 -0 -0 -0 -0 -0 -1 -0 -0 -0 -1 -0 -0 -0 -3 -14 -0 -5 -0 -0 -0 -0 -34 -0 -0 -0 -0 -0 -113 -0 -0 -0 -0 -0 -0 -0 -0 -0 -0 -0
-0 -0 -2 -3 -0 -0 -0 -0 -0 -0 -0 -0 -0 -7 -0 -0 -0 -0 -0 -1 -0 -1 -0 -0 -0 -0 -0 -0 -0 -0 -0 -0 -0 -0 -0 -0 -0 -0 -0 -0 -0 -0 -0 -0 -0
-0 -0 -0 -3 -5 -9 -5 -0 -1 -1 -0 -0 -4 -0 -8 -0 -2 -0 -0 -0 -9 -0 -3 -1 -38 -13 -0 -0 -0 -0 -0 -0 -0 -0 -0 -0 -0 -0 -0 -0 -0 -0 -0 -0 -0
Wind_Speed
7 7 8 9 9 9 7 8 8 7 3 3 5 2 4 3 4 9 11 8 6 7 10 10 11 10 12 13 13 5 6 11 14 15 15 6 4 5 3 4 7 8 6 8 9
8 8 8 8 8 8 7 7 7 7 6 4 2 0 0 1 8 14 14 14 10 4 7 9 11 10 12 13 9 12 9 14 11 13 12 7 5 4 5 7 8 6 9 5 6
9 8 8 8 8 7 7 7 6 6 7 5 2 1 1 3 6 8 19 23 20 8 11 12 13 11 11 16 17 17 17 12 16 16 13 6 8 5 8 7 8 8 9 7 4
11 9 8 8 8 7 7 6 6 7 6 5 2 2 3 6 8 5 8 5 9 12 13 13 11 11 8 16 18 19 20 18 17 17 4 5 6 12 11 8 8 9 8 8 8
12 11 9 8 8 8 6 6 6 7 7 6 5 2 4 8 14 8 4 4 9 11 15 15 14 12 13 9 15 21 17 20 16 16 16 7 9 13 13 9 12 11 11 11 8
13 12 10 8 7 8 7 6 6 8 7 7 5 4 6 14 9 14 8 6 5 3 13 14 12 12 15 16 16 9 19 18 19 18 13 15 11 10 11 10 12 13 9 7 4
13 12 10 10 9 9 8 6 6 8 8 7 6 7 11 14 3 7 14 14 10 10 7 15 15 14 7 15 13 15 16 15 22 19 14 14 19 17 13 13 14 14 9 4 5
13 12 10 11 10 10 9 5 4 6 8 6 7 9 8 10 15 10 7 7 11 11 11 11 6 11 14 7 11 9 11 13 18 13 18 10 16 12 15 18 16 9 2 7 5
14 12 11 12 10 9 8 5 5 7 8 5 6 9 8 3 15 13 13 12 10 9 7 11 9 6 11 7 6 10 12 22 15 18 15 17 18 12 19 13 7 6 8 9 8
13 12 11 10 8 7 7 1 3 5 3 6 8 3 8 11 9 14 15 16 12 8 8 9 6 7 8 11 18 12 16 14 18 17 18 21 15 13 14 9 10 8 8 9 10
11 11 9 9 7 7 6 1 1 2 6 10 8 10 2 8 0 7 12 11 12 12 12 11 10 19 23 22 18 15 17 16 17 17 21 20 20 15 13 11 10 8 6 10 11
10 10 9 8 7 5 7 4 3 4 7 17 17 19 18 6 8 11 11 13 15 17 14 11 22 25 14 17 18 21 18 17 15 20 20 19 17 16 11 15 14 9 9 11 12
10 11 9 7 4 4 9 10 2 6 7 6 20 16 14 11 14 12 16 17 15 17 17 19 20 16 18 19 20 22 23 16 15 14 9 7 12 10 12 15 9 11 10 15 16
12 12 11 12 3 7 11 4 5 6 6 6 7 6 13 6 7 14 13 17 12 19 17 16 18 20 20 23 20 23 23 21 19 18 12 11 5 16 22 16 10 8 6 16 14
13 14 15 16 6 5 5 8 8 3 7 8 6 4 5 11 4 10 17 15 18 15 10 11 11 18 22 21 20 20 17 23 27 11 3 6 6 10 10 19 10 9 10 15 14
16 16 16 9 2 7 11 9 3 2 9 5 5 7 7 9 6 7 19 19 13 16 13 14 9 13 17 21 20 21 15 20 18 11 9 14 10 7 7 14 13 9 10 14 14
17 18 16 8 5 14 12 3 2 7 2 5 4 6 13 9 10 6 16 20 11 6 13 7 19 8 4 12 20 22 14 8 8 7 5 16 8 7 4 8 15 15 14 15 13
14 17 13 3 13 16 6 3 8 7 6 3 3 8 8 7 7 12 7 17 18 10 2 10 8 15 15 11 15 25 23 4 6 6 7 14 7 5 8 8 11 13 15 14 13
13 5 8 8 13 8 5 5 6 3 4 6 5 7 6 7 7 13 14 12 14 19 8 3 10 5 10 15 16 11 10 16 7 10 7 4 4 5 8 6 10 13 16 15 14
4 4 5 16 13 8 4 8 7 4 5 5 9 13 10 10 9 12 13 10 19 18 15 3 7 6 12 8 9 7 8 11 4 7 8 6 9 5 10 9 7 14 16 14 13
4 4 8 17 7 4 6 7 7 10 8 7 9 11 13 11 14 13 9 12 13 12 13 5 3 1 1 9 13 9 7 10 5 5 6 6 1 11 10 13 11 11 16 16 14
4 3 10 12 6 3 5 5 3 6 16 12 11 16 11 11 14 11 12 6 15 15 10 9 5 5 6 4 12 9 8 11 3 2 1 5 2 6 10 8 10 9 16 15 13
6 3 7 7 6 6 6 6 8 4 6 9 10 14 7 7 8 14 13 7 20 14 13 14 6 2 5 8 1 4 7 5 5 3 3 4 3 7 8 8 5 9 12 14 13
4 5 3 3 2 6 10 7 7 14 18 15 13 16 9 10 11 6 9 7 14 15 13 7 6 6 6 6 12 7 7 6 5 1 2 2 6 6 7 9 7 8 10 13 13
3 4 6 6 8 11 5 5 8 6 12 15 8 17 10 8 9 7 12 6 8 9 11 5 5 14 11 18 17 14 9 8 9 7 1 3 7 9 10 10 9 8 9 13 12
5 3 4 3 8 16 15 9 13 7 5 9 14 9 15 9 8 12 12 11 9 8 15 12 7 13 10 6 12 14 13 12 10 7 7 9 6 8 8 9 9 9 9 11 12
2 2 1 4 9 8 7 10 11 12 12 18 13 15 12 12 7 13 10 12 7 10 11 6 4 5 4 4 5 4 9 14 10 8 8 10 8 5 6 7 9 10 10 9 9
Wind_Direction
284 293 297 301 302 308 320 328 331 335 14 30 5 344 267 278 240 228 250 249 15 9 339 293 278 262 255 245 259 262 243 236 233 247 264 237 162 254 137 268 273 278 289 133 141
271 280 289 296 302 306 310 315 324 323 317 321 333 5 308 141 257 249 245 260 277 298 282 275 266 236 230 220 229 230 223 238 239 248 267 277 179 238 306 281 284 285 257 149 167
260 267 281 289 296 302 311 312 311 315 317 305 313 319 95 163 289 249 232 237 244 231 266 275 286 288 270 226 214 223 234 251 239 252 269 270 314 304 277 268 271 270 321 334 34
255 261 267 281 289 296 306 315 313 312 318 302 280 259 180 198 243 69 51 32 251 238 242 260 249 250 253 241 229 229 231 231 260 274 250 241 285 280 273 276 288 301 304 292 290
256 259 263 263 274 284 289 295 303 304 304 302 279 228 183 212 239 138 133 208 203 207 224 233 240 242 241 245 239 242 244 247 237 252 268 224 232 264 270 275 283 282 265 253 244
256 258 259 260 256 265 266 281 288 293 294 292 284 230 250 238 244 239 191 231 288 267 203 244 250 245 270 248 258 264 244 262 266 250 234 263 251 244 249 245 258 267 268 277 272
249 255 255 250 248 252 257 251 279 288 283 281 277 219 242 231 261 270 202 246 261 274 279 204 247 280 272 262 299 257 267 247 244 244 245 226 246 241 256 250 252 260 258 83 66
239 250 250 256 245 254 253 250 270 289 282 277 256 233 249 245 250 252 274 251 258 254 259 282 286 251 274 335 312 280 232 250 238 249 237 226 257 250 250 240 235 230 173 127 111
233 236 244 251 253 239 226 239 272 293 298 242 231 230 261 178 227 228 218 222 222 230 228 239 260 258 262 246 271 240 234 224 243 235 229 222 246 243 257 268 212 247 208 155 130
231 229 227 245 258 234 200 146 305 311 273 232 268 283 247 235 223 219 228 223 240 249 237 218 221 225 213 205 220 222 226 238 219 226 238 234 233 234 276 218 213 232 234 144 142
231 216 209 230 230 229 140 246 256 208 195 199 196 218 107 263 47 193 210 204 222 237 228 206 211 219 211 213 229 250 251 239 239 210 234 233 226 223 230 249 256 217 243 149 119
217 195 197 213 226 209 195 204 237 100 274 218 250 228 249 333 233 214 195 196 201 216 214 219 227 226 226 236 239 240 251 268 243 247 220 237 226 228 224 245 225 216 204 141 120
198 184 182 190 187 197 213 223 94 77 265 194 219 227 229 216 233 216 198 200 201 212 208 216 236 232 238 234 236 239 238 244 255 230 269 239 247 243 232 232 207 223 187 140 142
190 177 167 135 150 215 215 235 156 104 268 202 212 238 218 144 250 243 208 203 223 223 215 235 239 239 228 233 230 234 238 233 250 254 197 201 254 216 229 224 224 189 204 142 141
188 177 167 176 121 176 113 108 103 102 281 117 162 159 202 186 84 217 212 230 224 214 193 219 214 223 230 235 239 239 243 220 240 237 169 247 221 248 243 208 189 193 196 145 141
185 179 171 196 265 109 125 121 88 126 252 161 129 183 180 197 205 292 188 209 222 238 224 247 261 230 224 229 234 250 257 275 241 210 222 201 205 247 200 172 175 183 150 139 138
186 179 177 164 188 135 133 100 121 231 79 182 181 187 214 201 212 194 199 205 204 191 229 228 243 239 321 252 223 228 210 226 218 192 222 190 181 252 54 120 172 165 143 140 138
187 184 179 157 128 139 149 104 228 237 203 117 191 202 220 202 208 198 215 205 214 218 339 223 240 194 189 234 212 206 209 209 165 195 153 163 204 216 146 111 118 137 139 141 147
163 154 148 169 150 149 154 199 228 234 177 181 176 212 213 201 244 197 217 214 209 203 213 262 232 205 201 210 185 180 218 239 264 189 125 187 125 49 111 92 133 141 145 155 156
133 134 166 145 155 149 189 219 231 224 154 205 216 198 202 186 192 198 200 200 223 207 189 182 279 193 195 206 199 208 203 204 233 164 164 181 184 178 161 154 157 152 159 158 156
114 147 158 146 145 180 217 221 254 224 179 212 235 244 246 166 202 194 217 240 192 184 142 170 211 289 256 187 168 184 213 234 109 231 145 129 190 153 160 158 171 165 162 162 162
146 163 150 150 171 182 220 200 206 233 205 233 256 278 230 192 199 193 243 225 165 148 173 175 272 274 245 281 177 175 229 234 235 36 303 115 139 76 101 122 153 177 164 159 156
142 116 165 153 191 198 226 231 206 269 227 200 249 236 241 240 188 204 230 216 141 158 165 160 217 196 342 151 41 212 227 281 353 314 216 69 176 110 107 110 142 150 146 152 146
149 155 137 206 269 216 211 224 219 219 239 226 261 251 235 240 190 185 227 182 167 175 183 188 181 210 257 107 130 175 208 242 203 342 358 60 129 139 136 132 129 138 142 146 151
173 187 162 176 218 231 192 232 209 233 214 200 247 252 220 217 214 213 227 208 182 183 173 231 250 212 243 131 155 168 184 242 207 223 39 237 137 170 166 158 161 153 134 144 160
141 188 156 179 199 211 224 229 237 203 261 215 235 256 235 210 209 195 181 226 176 184 201 219 298 313 87 74 154 172 187 204 218 211 242 272 303 156 168 132 133 159 159 167 169
153 284 43 166 186 196 211 216 218 210 231 252 241 235 277 210 259 215 179 205 179 170 185 183 251 313 52 83 81 350 205 196 209 217 212 222 238 102 96 133 151 161 165 158 156